CZ-6A DEB

Satellite information

Favourite Embed

Satellite Type and Status

DEBRISIN ORBIT

Key statistics

Satellite CZ-6A DEB at a glance.

Uptime

444

Days in orbit

Revolutions

≈ 14.0

Per day

Orbit

LEO

Low Earth Orbit

Inclination

88.8

Latest

Satellite identification and parameters

Extended collection of information and parameters for CZ-6A DEB.

Object identification

Identified? True

Debris? True

Object name: CZ-6A DEB

International designator: 2024-140SF

Object number (NORAD): 61270

Object ID (CCSDS): 61270

Country: PEOPLES REPUBLIC OF CHINA (PRC)

Current information (Y/N): Y

RCS size: SMALL

Orbital parameters

Period: 102.947 minutes

Inclination: 88.8171 deg

SMA: 7276.184 km

Apoapsis: 1002.444 km

Periapsis: 793.655 km

RAAN: 294.3215 deg

Eccentricy: 0.01434743

Argument of periapsis: 295.7413 deg

Mean anomaly: 62.9014 deg

Mean motion: 13.9877301 rev/day

Mean motion (dot): 0.00001866 rev/day2

B* drag term: 0.0011803173 1/REarth

Two-line elements (TLE)

Creation date: Oct. 23, 2025, 6:40 p.m.

Reference frame: TEME

Reference center: EARTH

Epoch: Oct. 22, 2025, 11:49 p.m. UTC

TLE line 0: 0 CZ-6A DEB

TLE line 1: 1 61270U 24140SF 25295.99240721 .00001866 00000-0 11803-2 0 9990

TLE line 2: 2 61270 88.8171 294.3215 0143474 295.7413 62.9014 13.98773010 59084

Live tracking on map

Real-time ground track for satellite CZ-6A DEB.

In-orbit conjunctions

A list of the most updated potential collisions computed for object CZ-6A DEB.

Target Orbit TCA Probability of collision Miss distance Type
FENGYUN 1C DEB SSO 2024-10-24 13:58:24 0.0001090892 379.0 (m) DEBRIS
COSMOS 1275 DEB LEO 2024-10-21 02:55:51 0.0002663729 197.0 (m) DEBRIS

Associated space launch

18 Low Earth Orbit communication satellites with Ku, Q and V band payloads for the G60 constellation operated by Shanghai Spacecom Satellite Technology (SSST) with funding backed by the Shanghai local government. Initial constellation will consist of 1296 satellites by 2027 with long term plans to expand it to 12000 satellites.

CZ-6A DEB was lifted into orbit during the mission ‘Long March 6A | G60 Polar Group 01’, on board a Long March 6A space rocket.

The launch took place on Aug. 6, 2024, 6:42 a.m. from Launch Complex 9A.

For more information about the launch, click the button.

Launch to space Long March 6A | G60 Polar Group 01
Long March 6A | G60 Polar Group 01

Agency: N/A

Status: Launch Successful

Launch date: Aug. 6, 2024, 6:42 a.m. UTC

Rocket: Long March 6A

Launch pad: Launch Complex 9A

Location: Taiyuan Satellite Launch Center, People's Republic of China

...

Latest news about this satellite

News about space launch
Brightness of first Chinese broadband constellation satellites alarms astronomers

The first satellites of a Chinese broadband constellation are significantly brighter than those of Western systems, posing a new challenge for astronomers.

News about space launch
Chinese rocket stage breaks up into cloud of more than 700 pieces of space debris

HELSINKI — A Chinese Long March 6A rocket’s upper stage has fragmented into a cloud of over 700 pieces of space debris, adding to concerns about long-term orbital safety. China […]

News about space launch
China's Thousand Sails Megaconstellation Kicks Off with Dangerous Debris Field

China's Thousand Sails Megaconstellation Kicks Off with Dangerous Debris Field


Newsletter sign-up

Weekly statistics, charts and insights to help you stay on top of the space industry.